Rochelle, IL

9:10 AM CDT on August 20, 2017 (GMT -0500)
Rochelle

Weather History for KRPJ - January, 2013

Change the Weather History Date:

Saturday, January 19, 2013

  Actual Average (KRFD) Record (KRFD)
Temperature  
Mean Temperature 34 °F -  
Max Temperature 45 °F 27 °F 53 °F (2006)
Min Temperature 22 °F 10 °F -24 °F (1985)
Degree Days  
Heating Degree Days 30    
Moisture  
Dew Point 31 °F    
Average Humidity 76    
Maximum Humidity 85    
Minimum Humidity 54    
Precipitation  
Precipitation 0.00 in - - ()
Sea Level Pressure  
Sea Level Pressure 29.85 in    
Wind  
Wind Speed 17 mph (WSW)    
Max Wind Speed 37 mph    
Max Gust Speed 47 mph    
Visibility 10 miles    
Events      
Averages and records for this station are not official NWS values.
T = Trace of Precipitation, MM = Missing Value Source: NWS Daily Summary

Daily Weather History Graph

Daily Weather History Graph

Search for Another Location

Airport or City:

Trip Planner

Search our weather history database for the weather conditions in past years. The results will help you decide how hot, cold, wet, or windy it might be!

Date:

Astronomy

Jan. 19, 2013 Rise Set
Actual Time 7:19 AM CST 4:55 PM CST
Civil Twilight 6:48 AM CST 5:25 PM CST
Nautical Twilight 6:14 AM CST 6:00 PM CST
Astronomical Twilight 5:41 AM CST 6:33 PM CST
Moon 11:22 AM CST (1/19) 12:52 AM CST (1/19)
Length of Visible Light 10h 37m
Length of Day
9h 36m
First Quarter, 57% of the Moon is Illuminated
Jan 19
First Quarter
Jan 26
Full
Feb 3
Last Quarter
Feb 10
New
Feb 17
First Quarter

Hourly Weather History & Observations

Time (CST) Temp. Windchill Dew Point Humidity Pressure Visibility Wind Dir Wind Speed Gust Speed Precip Events Conditions
12:15 AM 38.3 °F 28.4 °F 30.7 °F 74% 29.90 in 10.0 mi SW 19.6 mph 26.5 mph N/A   Clear
12:35 AM 37.6 °F 27.7 °F 31.1 °F 77% 29.90 in 10.0 mi SW 18.4 mph 23.0 mph N/A   Clear
12:55 AM 37.4 °F 28.2 °F 31.1 °F 78% 29.91 in 10.0 mi SW 16.1 mph - N/A   Clear
1:15 AM 37.6 °F 28.4 °F 31.5 °F 79% 29.91 in 10.0 mi SW 16.1 mph - N/A   Clear
1:35 AM 37.8 °F 28.3 °F 31.5 °F 78% 29.92 in 10.0 mi SW 17.3 mph - N/A   Clear
1:55 AM 37.8 °F 28.3 °F 31.6 °F 79% 29.92 in 10.0 mi SW 17.3 mph - N/A   Clear
2:15 AM 37.6 °F 28.4 °F 31.6 °F 79% 29.92 in 10.0 mi SW 16.1 mph - N/A   Clear
2:35 AM 37.0 °F 27.7 °F 31.6 °F 81% 29.92 in 10.0 mi SW 16.1 mph - N/A   Clear
2:55 AM 37.4 °F 28.2 °F 31.6 °F 80% 29.91 in 10.0 mi SW 16.1 mph - N/A   Clear
3:15 AM 37.4 °F 28.2 °F 31.8 °F 80% 29.91 in 10.0 mi SW 16.1 mph - N/A   Clear
3:35 AM 37.6 °F 28.8 °F 31.8 °F 80% 29.90 in 10.0 mi SW 15.0 mph - N/A   Clear
3:55 AM 37.6 °F 28.4 °F 31.8 °F 80% 29.90 in 10.0 mi SW 16.1 mph - N/A   Clear
4:15 AM 37.2 °F 29.1 °F 31.8 °F 81% 29.89 in 10.0 mi SW 12.7 mph - N/A   Clear
4:35 AM 37.0 °F 28.9 °F 32.0 °F 82% 29.89 in 10.0 mi SW 12.7 mph - N/A   Clear
4:55 AM 36.7 °F 29.4 °F 31.6 °F 82% 29.88 in 10.0 mi SSW 10.4 mph - N/A   Clear
5:15 AM 36.7 °F 28.4 °F 31.8 °F 83% 29.88 in 10.0 mi SSW 12.7 mph - N/A   Scattered Clouds
5:35 AM 36.0 °F 28.5 °F 31.6 °F 84% 29.88 in 10.0 mi SSW 10.4 mph - N/A   Clear
6:35 AM 35.8 °F 27.3 °F 31.3 °F 84% 29.87 in 10.0 mi SSW 12.7 mph - N/A   Clear
6:55 AM 35.8 °F 27.3 °F 31.5 °F 84% 29.86 in 10.0 mi SSW 12.7 mph - N/A   Clear
7:15 AM 36.0 °F 27.1 °F 31.6 °F 84% 29.85 in 10.0 mi SSW 13.8 mph - N/A   Clear
7:55 AM 36.1 °F 27.7 °F 31.8 °F 84% 29.86 in 10.0 mi SSW 12.7 mph - N/A   Clear
8:15 AM 36.3 °F 28.4 °F 32.0 °F 84% 29.85 in 10.0 mi SSW 11.5 mph - N/A   Clear
8:35 AM 36.7 °F 29.9 °F 32.0 °F 83% 29.86 in 10.0 mi SW 9.2 mph - N/A   Clear
9:35 AM 39.2 °F 30.8 °F 32.7 °F 78% 29.85 in 10.0 mi SW 15.0 mph 19.6 mph N/A   Scattered Clouds
9:55 AM 39.6 °F 32.1 °F 33.3 °F 78% 29.86 in 10.0 mi SW 12.7 mph 18.4 mph N/A   Clear
10:15 AM 40.6 °F 32.0 °F 33.8 °F 77% 29.85 in 10.0 mi SW 17.3 mph - N/A   Clear
10:35 AM 42.1 °F 33.9 °F 34.9 °F 76% 29.83 in 10.0 mi SW 17.3 mph 23.0 mph N/A   Scattered Clouds
11:15 AM 42.3 °F 33.8 °F 34.9 °F 75% 29.83 in 10.0 mi WSW 18.4 mph 23.0 mph N/A   Scattered Clouds
11:35 AM 41.9 °F 34.6 °F 35.4 °F 78% 29.81 in 10.0 mi WSW 13.8 mph - N/A   Scattered Clouds
11:55 AM 41.2 °F 33.4 °F 35.2 °F 79% 29.79 in 10.0 mi SW 15.0 mph - N/A   Clear
12:15 PM 41.5 °F 35.0 °F 35.8 °F 80% 29.78 in 10.0 mi SW 11.5 mph - N/A   Clear
12:35 PM 41.9 °F 34.6 °F 36.0 °F 79% 29.76 in 10.0 mi SW 13.8 mph 19.6 mph N/A   Clear
12:55 PM 41.9 °F 34.6 °F 36.0 °F 79% 29.75 in 10.0 mi SW 13.8 mph 18.4 mph N/A   Clear
1:15 PM 43.0 °F 36.4 °F 36.7 °F 78% 29.76 in 10.0 mi WSW 12.7 mph - N/A   Scattered Clouds
1:35 PM 44.8 °F 36.6 °F 37.2 °F 75% 29.74 in 10.0 mi WSW 20.7 mph 26.5 mph N/A   Scattered Clouds
1:55 PM 45.5 °F 38.1 °F 37.4 °F 73% 29.74 in 10.0 mi WSW 18.4 mph 27.6 mph N/A   Clear
2:15 PM 45.9 °F 38.3 °F 37.4 °F 72% 29.73 in 10.0 mi WSW 19.6 mph 26.5 mph N/A   Clear
2:35 PM 45.9 °F 38.3 °F 37.0 °F 71% 29.74 in 10.0 mi WSW 19.6 mph - N/A   Scattered Clouds
2:55 PM 45.7 °F 38.0 °F 37.0 °F 72% 29.75 in 10.0 mi WSW 19.6 mph 25.3 mph N/A   Clear
3:15 PM 45.3 °F 37.6 °F 36.7 °F 72% 29.74 in 10.0 mi WSW 19.6 mph 25.3 mph N/A   Clear
3:35 PM 45.0 °F 37.9 °F 37.4 °F 75% 29.75 in 10.0 mi WSW 16.1 mph - N/A   Clear
3:55 PM 44.4 °F 37.9 °F 37.4 °F 76% 29.76 in 10.0 mi WSW 13.8 mph - N/A   Clear
4:15 PM 43.3 °F 37.2 °F 36.9 °F 78% - 10.0 mi WSW 11.5 mph - N/A   Clear
4:35 PM 42.8 °F 37.0 °F 35.2 °F 75% 29.77 in 10.0 mi WSW 10.4 mph - N/A   Clear
4:55 PM 39.9 °F 33.4 °F 34.7 °F 82% 29.78 in 10.0 mi WSW 10.4 mph - N/A   Clear
5:15 PM 38.8 °F 31.6 °F 34.2 °F 83% 29.79 in 10.0 mi WSW 11.5 mph - N/A   Clear
5:35 PM 38.3 °F 30.1 °F 34.0 °F 84% 29.79 in 10.0 mi WSW 13.8 mph - N/A   Clear
5:55 PM 37.8 °F 30.2 °F 33.6 °F 85% 29.80 in 10.0 mi WSW 11.5 mph - N/A   Mostly Cloudy
6:15 PM 38.3 °F 30.5 °F 32.9 °F 81% 29.80 in 10.0 mi West 12.7 mph - N/A   Scattered Clouds
6:35 PM 40.3 °F 31.6 °F 32.9 °F 75% 29.80 in 10.0 mi West 17.3 mph 21.9 mph N/A   Clear
6:55 PM 39.6 °F 30.6 °F 32.9 °F 77% 29.80 in 10.0 mi West 17.3 mph - N/A   Clear
7:15 PM 40.1 °F 29.5 °F 32.7 °F 75% 29.81 in 10.0 mi West 25.3 mph 29.9 mph N/A   Clear
7:35 PM 40.1 °F 29.9 °F 32.0 °F 73% 29.82 in 10.0 mi West 23.0 mph 32.2 mph N/A   Clear
7:55 PM 39.4 °F 28.7 °F 31.6 °F 74% 29.83 in 10.0 mi West 24.2 mph 38.0 mph N/A   Clear
8:15 PM 38.5 °F 27.1 °F 31.1 °F 75% 29.83 in 10.0 mi West 26.5 mph 34.5 mph N/A   Clear
8:35 PM 38.5 °F 27.3 °F 31.1 °F 75% 29.84 in 10.0 mi West 25.3 mph 33.4 mph N/A   Scattered Clouds
8:55 PM 37.8 °F 25.0 °F 30.2 °F 74% 29.84 in 10.0 mi West 32.2 mph 41.4 mph N/A   Scattered Clouds
9:15 PM 36.9 °F 23.1 °F 27.1 °F 68% 29.85 in 10.0 mi West 36.8 mph 44.9 mph N/A   Clear
9:35 PM 34.7 °F 20.9 °F 20.8 °F 57% 29.87 in 10.0 mi West 32.2 mph 47.2 mph N/A   Clear
9:55 PM 32.0 °F 17.6 °F 21.7 °F 66% 29.90 in 10.0 mi West 29.9 mph 44.9 mph N/A   Clear
10:15 PM 30.2 °F 14.1 °F 17.4 °F 59% 29.92 in 10.0 mi WNW 35.7 mph 44.9 mph N/A   Clear
10:35 PM 28.9 °F 13.5 °F 17.4 °F 62% 29.93 in 10.0 mi West 29.9 mph 40.3 mph N/A   Clear
10:55 PM 27.9 °F 12.0 °F 14.0 °F 56% 29.95 in 10.0 mi WNW 29.9 mph 40.3 mph N/A   Clear
11:15 PM 26.4 °F 9.5 °F 12.4 °F 55% 29.97 in 10.0 mi WNW 32.2 mph 43.7 mph N/A   Clear
11:35 PM 24.8 °F 9.3 °F 12.9 °F 61% 29.98 in 10.0 mi NW 24.2 mph 38.0 mph N/A   Clear
11:55 PM 22.6 °F 4.6 °F 8.2 °F 54% 30.00 in 10.0 mi WNW 31.1 mph 40.3 mph N/A   Clear